Wetbulb
43.96 44.88 44.47 44.28 44.48 44.55 43.06 40.43 37.84 37.24 36.60 35.94 36.97 36.91 35.62 35.17 35.34 35.49 36.13 36.51 37.27 34.56 34.06 33.28 33.22 32.49 32.01 31.60 30.84 31.87 31.26 30.88
43.81 43.65 44.04 43.92 44.68 42.97 39.78 38.21 36.50 36.04 35.01 33.72 33.88 33.25 33.60 34.05 34.55 35.82 35.65 35.42 35.50 33.52 32.52 31.99 31.91 31.18 30.87 31.50 30.43 29.51 29.20 30.23
42.49 43.88 43.68 45.11 42.44 39.71 38.08 36.78 36.01 34.96 34.05 33.12 33.48 32.55 33.48 33.00 33.83 34.51 35.34 35.01 34.84 35.20 32.06 31.48 31.25 30.68 30.70 30.12 28.86 27.55 27.81 28.76
42.26 43.31 43.59 45.39 39.60 38.27 37.43 35.92 35.79 35.95 35.31 34.48 34.36 33.63 33.77 32.68 32.26 32.16 33.61 35.13 35.39 34.64 33.38 31.86 31.09 30.40 29.99 28.71 28.18 27.31 25.91 26.87
43.01 43.09 43.98 43.07 38.93 37.67 36.58 36.23 35.53 36.36 35.30 33.39 32.23 30.96 30.40 31.23 31.36 31.76 33.24 34.92 34.86 35.57 34.49 32.40 31.00 30.37 30.04 28.68 32.03 27.23 25.88 25.11
42.00 43.23 43.98 42.78 41.20 38.82 35.15 35.46 35.51 35.17 34.30 33.51 32.19 31.22 31.37 31.85 32.11 31.98 32.55 33.59 34.49 34.92 34.19 31.92 30.69 30.49 29.80 28.85 28.31 27.16 25.93 25.27
43.00 44.63 44.08 42.35 41.05 37.92 33.92 34.70 34.89 34.60 34.18 33.90 32.70 31.81 31.60 31.22 31.13 31.01 32.04 32.60 33.26 33.53 33.42 31.40 31.03 30.29 29.81 29.51 28.44 26.88 26.27 25.68
42.85 43.11 42.72 41.70 39.76 35.38 34.88 34.94 34.62 34.18 33.93 34.06 33.69 32.77 32.47 31.66 31.12 30.90 31.31 31.42 31.35 31.77 30.63 30.53 30.58 30.56 30.61 30.15 27.96 26.82 26.16 25.06
43.05 43.59 42.95 41.55 37.66 35.29 34.56 34.64 34.21 34.11 34.23 33.48 33.53 33.36 32.49 32.68 31.81 31.72 31.49 31.15 31.27 31.69 30.86 30.86 30.90 31.25 30.83 29.41 26.96 25.34 26.18 26.46
44.19 43.72 42.46 40.67 35.82 34.43 33.92 33.66 33.86 34.02 33.63 33.13 33.09 33.15 32.86 32.47 32.28 31.53 31.40 31.40 33.36 32.40 30.89 30.33 30.81 31.04 30.18 27.60 25.24 25.24 25.02 26.20
43.86 42.87 41.80 37.81 35.36 34.07 33.40 33.50 33.40 33.14 32.86 33.06 33.29 32.57 33.05 32.94 32.17 31.55 31.36 31.10 31.03 31.06 31.01 30.54 30.98 30.85 29.15 25.96 25.40 26.33 25.40 26.85
43.19 41.40 38.47 35.84 33.94 32.71 32.60 33.17 33.09 32.38 33.17 32.89 32.30 32.15 33.04 32.34 31.76 31.64 31.40 30.91 31.32 31.54 31.95 31.48 31.75 30.65 27.56 26.05 26.56 27.16 25.60 25.09
41.85 37.86 35.70 34.20 33.33 32.62 32.67 32.57 32.62 32.45 32.85 32.82 32.54 32.30 32.47 31.19 31.39 31.64 31.40 30.75 31.94 31.91 31.81 31.51 31.97 30.17 27.74 26.91 25.93 25.57 24.71 24.43
37.92 35.47 34.48 33.66 33.23 33.36 32.87 32.59 32.47 32.81 32.85 32.12 31.59 31.29 31.28 30.50 30.89 31.17 31.32 31.10 31.32 31.28 31.33 30.87 30.32 28.80 27.96 26.82 26.06 25.44 24.21 24.35
35.26 33.56 33.28 33.28 33.79 33.52 33.20 32.71 32.87 33.02 32.76 31.68 30.56 30.29 31.03 30.79 31.10 30.43 31.11 31.32 30.42 29.79 29.85 30.24 28.78 28.19 28.88 27.48 26.72 24.78 23.57 24.48
35.48 33.28 32.29 32.09 32.26 32.89 33.05 32.76 33.25 33.23 32.55 31.69 30.88 31.39 31.89 31.28 30.51 30.14 30.06 29.91 29.15 28.53 28.21 28.28 26.64 26.89 28.02 27.33 26.92 24.50 23.51 24.02
35.49 34.70 34.10 33.34 33.38 32.70 33.36 32.81 32.81 33.13 32.26 31.94 32.52 32.50 31.96 30.49 29.59 28.93 28.35 27.61 26.69 26.37 26.08 26.14 24.73 26.32 29.91 30.12 28.72 24.42 24.07 23.89
34.82 34.20 33.42 33.29 32.74 32.90 31.70 32.35 33.35 32.47 32.19 32.98 32.94 32.36 31.25 29.70 28.37 27.15 25.67 24.17 23.94 23.72 24.22 24.63 23.84 24.34 29.73 30.35 29.85 25.02 23.98 23.61
34.58 33.43 32.61 32.40 31.74 31.82 32.27 33.08 33.12 32.50 31.91 32.40 32.49 31.34 30.03 27.84 25.65 24.39 24.12 23.75 22.83 22.93 23.47 23.87 23.23 25.25 29.14 30.69 29.88 25.02 24.03 23.55
MSLP
1027.23 1027.17 1027.16 1027.00 1027.13 1027.40 1027.46 1027.72 1027.80 1027.66 1027.53 1027.33 1027.10 1026.97 1027.05 1027.02 1026.86 1026.54 1026.19 1025.82 1025.59 1025.60 1025.58 1025.35 1024.97 1024.70 1024.36 1023.96 1023.65 1023.25 1022.93 1022.53
1027.30 1027.10 1026.98 1026.96 1027.37 1027.57 1027.84 1027.98 1028.11 1027.93 1027.98 1028.03 1027.99 1027.99 1027.69 1027.39 1027.00 1026.63 1026.27 1026.04 1025.88 1025.77 1025.62 1025.32 1025.01 1024.77 1024.43 1023.99 1023.65 1023.32 1022.85 1022.36
1027.01 1027.00 1027.05 1027.23 1027.66 1027.85 1028.13 1028.23 1028.20 1028.25 1028.32 1028.38 1028.36 1028.25 1027.89 1027.69 1027.29 1026.93 1026.56 1026.30 1026.02 1025.64 1025.58 1025.32 1024.94 1024.70 1024.30 1023.91 1023.56 1023.47 1023.01 1022.40
1026.73 1026.96 1027.14 1027.63 1027.99 1028.13 1028.34 1028.42 1028.41 1028.40 1028.35 1028.38 1028.23 1028.07 1027.83 1027.77 1027.62 1027.29 1026.72 1026.27 1025.93 1025.65 1025.42 1025.14 1024.79 1024.52 1024.22 1023.78 1023.37 1023.26 1023.12 1022.41
1026.61 1026.92 1027.33 1027.92 1028.12 1028.27 1028.46 1028.60 1028.63 1028.52 1028.48 1028.65 1028.69 1028.81 1028.71 1028.31 1028.03 1027.56 1026.86 1026.29 1025.93 1025.51 1025.25 1024.91 1024.64 1024.31 1023.98 1023.49 1022.85 1022.91 1022.89 1022.66
1026.30 1026.76 1027.21 1027.89 1028.13 1028.51 1028.70 1028.86 1028.87 1028.83 1028.74 1028.79 1028.84 1028.88 1028.66 1028.28 1027.94 1027.49 1027.00 1026.47 1025.91 1025.43 1025.07 1024.78 1024.44 1024.02 1023.60 1023.25 1022.86 1022.59 1022.44 1022.36
1026.22 1026.54 1027.42 1027.92 1028.15 1028.49 1028.93 1029.12 1029.23 1029.07 1028.92 1028.86 1028.82 1028.80 1028.66 1028.48 1027.99 1027.71 1027.16 1026.65 1025.98 1025.44 1024.95 1024.59 1024.08 1023.61 1023.20 1022.79 1022.43 1022.24 1021.94 1021.69
1026.19 1026.81 1027.45 1027.72 1028.13 1028.75 1029.06 1029.22 1029.37 1029.19 1028.96 1028.89 1028.87 1028.78 1028.55 1028.36 1028.12 1027.76 1027.28 1026.76 1026.11 1025.47 1025.01 1024.48 1023.89 1023.28 1022.72 1022.22 1022.08 1021.80 1021.63 1021.38
1026.12 1026.80 1027.29 1027.86 1028.25 1028.93 1029.15 1029.34 1029.42 1029.21 1029.03 1029.12 1029.02 1028.83 1028.54 1028.26 1027.97 1027.61 1027.20 1026.72 1026.09 1025.28 1024.77 1024.14 1023.49 1022.88 1022.38 1022.10 1021.85 1021.58 1021.23 1020.79
1026.09 1026.99 1027.18 1028.03 1028.71 1029.23 1029.33 1029.49 1029.40 1029.24 1029.33 1029.30 1029.14 1028.85 1028.54 1028.25 1027.83 1027.41 1027.14 1026.44 1025.62 1025.02 1024.52 1023.95 1023.20 1022.54 1022.08 1021.84 1021.85 1021.49 1020.88 1020.32
1026.31 1026.85 1027.48 1028.29 1029.02 1029.46 1029.49 1029.45 1029.48 1029.53 1029.51 1029.43 1029.22 1028.87 1028.53 1028.10 1027.70 1027.47 1027.01 1026.37 1025.61 1024.97 1024.26 1023.59 1022.84 1022.18 1021.98 1022.21 1021.86 1021.26 1020.54 1019.74
1026.37 1026.91 1027.97 1028.42 1029.29 1029.64 1029.65 1029.53 1029.61 1029.67 1029.63 1029.49 1029.22 1028.95 1028.57 1028.16 1027.88 1027.49 1026.92 1026.27 1025.51 1024.88 1024.11 1023.50 1022.89 1022.48 1022.49 1022.27 1021.80 1021.03 1020.19 1019.33
1026.43 1027.21 1028.19 1028.92 1029.43 1029.66 1029.75 1029.70 1029.71 1029.70 1029.64 1029.53 1029.33 1029.06 1028.74 1028.39 1027.96 1027.44 1026.78 1026.27 1025.53 1024.87 1024.16 1023.64 1023.14 1022.77 1022.52 1022.12 1021.49 1020.87 1019.93 1019.00
1026.90 1027.53 1028.36 1029.05 1029.40 1029.66 1029.79 1029.79 1029.83 1029.76 1029.70 1029.63 1029.45 1029.23 1028.94 1028.57 1028.12 1027.58 1026.87 1026.37 1025.72 1025.05 1024.40 1023.88 1023.36 1022.89 1022.36 1021.88 1021.28 1020.37 1019.57 1018.78
1027.01 1027.79 1028.48 1029.04 1029.36 1029.69 1029.87 1029.95 1029.85 1029.81 1029.78 1029.72 1029.65 1029.40 1029.06 1028.75 1028.31 1027.79 1027.16 1026.62 1026.03 1025.43 1024.79 1024.24 1023.72 1022.93 1022.26 1021.63 1020.88 1020.07 1019.33 1018.45
1026.99 1027.95 1028.64 1029.17 1029.56 1029.80 1029.96 1030.04 1030.01 1029.97 1029.98 1029.91 1029.81 1029.54 1029.22 1028.90 1028.46 1027.97 1027.44 1026.91 1026.34 1025.81 1025.09 1024.38 1023.82 1023.12 1022.42 1021.54 1020.57 1019.83 1018.93 1018.00
1027.05 1027.87 1028.58 1029.22 1029.48 1029.80 1030.06 1030.22 1030.14 1030.02 1030.10 1030.07 1029.88 1029.66 1029.45 1029.18 1028.72 1028.30 1027.83 1027.27 1026.65 1026.03 1025.31 1024.63 1023.91 1023.23 1022.34 1021.34 1020.36 1019.48 1018.67 1017.76
1026.92 1027.83 1028.56 1029.05 1029.37 1029.74 1030.16 1030.25 1030.08 1030.16 1030.15 1030.05 1029.94 1029.79 1029.69 1029.46 1029.12 1028.65 1028.14 1027.58 1026.93 1026.26 1025.59 1024.85 1024.05 1023.28 1022.27 1021.05 1020.19 1019.45 1018.60 1017.62
1027.06 1027.91 1028.61 1029.01 1029.51 1029.88 1030.06 1030.09 1030.16 1030.24 1030.26 1030.18 1030.07 1030.00 1029.92 1029.73 1029.38 1028.99 1028.49 1027.97 1027.40 1026.69 1025.86 1025.15 1024.39 1023.48 1022.41 1021.22 1020.23 1019.40 1018.63 1017.74
Wind_Speed
3 3 4 3 4 5 8 6 7 7 5 5 5 5 5 5 4 4 6 5 6 5 5 5 5 4 4 4 5 4 3 4
2 5 2 3 7 7 7 7 5 5 5 4 4 3 3 3 4 6 7 7 6 5 3 4 5 4 5 5 3 4 4 3
3 2 0 7 4 7 7 6 6 5 3 2 1 1 2 2 3 6 6 6 5 3 3 4 5 4 6 5 4 3 3 3
4 3 5 5 4 7 6 5 5 4 4 3 3 3 3 4 3 3 4 6 5 3 4 4 5 4 4 4 4 4 3 4
4 4 6 4 5 6 6 5 4 4 5 5 4 2 2 2 3 3 5 6 6 6 5 6 5 4 5 4 4 3 1 5
5 5 8 4 6 6 5 4 5 4 5 4 3 3 2 3 3 6 5 6 6 6 6 6 6 4 5 6 6 6 2 2
5 8 9 6 6 6 5 5 3 4 4 4 4 4 6 5 5 5 5 4 5 6 6 6 6 6 6 6 6 5 5 4
6 12 9 8 8 7 6 5 3 2 4 4 4 5 5 5 5 4 6 4 3 6 6 6 5 6 7 6 6 6 4 4
5 10 8 6 8 7 7 6 3 3 4 6 5 6 3 3 3 3 4 4 5 6 7 7 8 7 7 6 3 3 6 6
11 8 10 8 7 5 7 5 3 4 6 4 5 5 6 4 6 5 4 5 6 7 8 7 8 8 6 5 3 6 6 8
10 9 10 7 7 5 6 4 3 4 4 3 3 5 6 5 6 7 7 7 6 8 8 8 9 9 6 6 5 8 8 10
9 11 7 9 6 5 4 5 5 5 2 3 5 6 6 6 6 6 7 7 8 8 9 10 11 9 6 6 8 13 15 14
9 12 10 7 7 5 5 3 4 3 1 4 5 6 6 7 6 7 7 8 9 9 10 11 12 6 6 8 13 13 14 14
9 11 9 7 6 6 4 3 3 3 4 5 6 6 6 6 7 7 8 8 9 10 11 11 12 6 7 11 13 14 13 13
10 8 7 7 6 6 4 4 3 4 5 5 6 6 6 6 7 8 9 10 10 10 11 10 11 7 10 15 15 14 13 13
11 9 7 6 6 5 5 4 4 3 5 6 5 5 6 6 7 8 8 9 10 9 11 11 10 10 11 17 17 14 14 14
12 10 9 7 6 5 5 4 4 5 5 5 5 5 6 6 7 8 9 10 11 10 11 11 12 10 26 29 26 14 15 15
13 11 8 7 6 7 6 4 4 6 4 4 5 5 6 7 7 9 10 9 9 11 11 13 14 13 28 31 32 14 13 16
12 9 7 7 6 6 6 5 5 5 4 5 5 5 5 6 6 7 8 7 8 9 11 12 11 13 27 29 30 15 13 16
Wind_Direction
157 174 239 73 65 106 80 63 48 45 25 20 17 25 23 30 17 12 14 359 10 38 24 3 349 345 332 333 326 329 286 304
174 243 332 19 99 97 82 76 40 56 32 16 15 5 340 5 358 5 14 10 18 38 15 353 349 338 317 329 308 319 315 328
211 226 163 73 123 106 92 85 68 55 55 24 81 296 308 274 339 7 359 1 4 9 1 341 334 335 335 327 324 310 281 312
182 238 117 97 133 117 118 101 86 68 62 32 1 354 351 358 336 323 319 351 344 334 339 329 322 327 309 301 298 315 290 304
182 161 101 185 122 114 109 103 94 67 55 57 51 24 346 288 277 295 317 335 335 327 325 317 314 307 306 294 300 276 243 295
177 140 126 167 114 113 113 91 64 55 59 69 55 16 279 289 305 327 329 324 326 327 319 316 310 301 290 287 295 295 263 250
138 128 132 119 112 104 91 84 60 53 55 46 34 4 325 336 322 331 324 313 306 315 318 308 297 294 292 286 283 289 278 266
145 151 146 140 122 109 123 101 64 29 41 21 1 346 343 328 330 309 327 315 301 305 312 306 299 295 293 287 297 293 299 289
164 156 151 111 99 99 108 95 76 11 8 9 356 351 328 336 325 318 311 299 298 295 305 308 304 301 299 312 296 293 280 282
139 148 128 123 107 106 108 103 47 9 17 16 5 345 355 345 336 327 311 303 312 322 310 308 304 300 306 308 318 304 287 293
145 142 124 116 112 104 97 86 47 19 49 20 350 334 359 343 342 339 329 316 312 317 310 308 308 304 326 3 321 309 298 310
154 108 129 110 114 110 104 63 40 34 40 6 359 355 357 347 349 336 325 316 315 319 319 315 321 331 12 342 329 328 322 317
137 127 120 122 129 122 103 68 52 35 43 23 1 9 357 354 344 334 327 326 330 330 328 338 347 10 353 341 333 328 323 319
121 119 123 130 131 123 110 73 55 34 48 31 14 13 1 350 342 337 334 338 336 340 345 349 354 349 348 349 341 333 327 319
129 119 130 130 131 132 127 82 64 49 56 37 21 7 359 350 344 341 346 351 355 353 351 349 351 316 347 349 345 337 326 323
136 136 141 130 127 132 101 88 65 64 60 36 15 5 1 353 349 349 348 354 353 344 350 355 350 345 353 351 347 343 331 327
144 141 134 141 140 132 115 102 79 75 60 29 18 11 3 359 359 2 358 356 351 350 352 351 349 347 350 352 354 344 338 332
145 143 140 139 139 130 127 120 91 74 63 27 28 19 18 6 1 6 357 350 345 350 349 350 347 345 351 354 353 344 339 338
142 141 133 130 122 117 127 106 93 93 62 39 38 29 26 5 4 359 355 348 341 341 343 343 339 345 350 355 351 346 345 340